Weather History for Tekamah, NE

Change the Weather History Date:

Friday, May 24, 2013

  Actual Average Record
Temperature  
Mean Temperature 60 °F -  
Max Temperature 77 °F 77 °F 100 °F (1967)
Min Temperature 45 °F 52 °F 39 °F (2002)
Degree Days  
Heating Degree Days 5    
Growing Degree Days 10 (Base 50)    
Moisture  
Dew Point 44 °F    
Average Humidity 49    
Maximum Humidity 80    
Minimum Humidity 34    
Precipitation  
Precipitation 0.00 in - - ()
Sea Level Pressure  
Sea Level Pressure 30.18 in    
Wind  
Wind Speed 13 mph (SE)    
Max Wind Speed 28 mph    
Max Gust Speed 36 mph    
Visibility 10 miles    
Events      
Averages and records for this station are not official NWS values.
T = Trace of Precipitation, MM = Missing Value Source: NWS Daily Summary

Daily Weather History Graph

Daily Weather History Graph

Search for Another Location

Airport:

Trip Planner

Search our weather history database for the weather conditions in past years. The results will help you decide how hot, cold, wet, or windy it might be!

Date:

Astronomy

May. 24, 2013 Rise Set
Actual Time 5:56 AM CDT 8:46 PM CDT
Civil Twilight 5:24 AM CDT 9:19 PM CDT
Nautical Twilight 4:42 AM CDT 10:00 PM CDT
Astronomical Twilight 3:55 AM CDT 10:48 PM CDT
Moon 8:29 PM CDT (5/24) 5:30 AM CDT (5/24)
Length of Visible Light 15h 55m
Length of Day
14h 49m
Full, 100% of the Moon is Illuminated
May 24
Full
May 24
Full
May 31
Last Quarter
Jun 8
New
Jun 16
First Quarter

Hourly Weather History & Observations

Time (CDT) Temp. Windchill Dew Point Humidity Pressure Visibility Wind Dir Wind Speed Gust Speed Precip Events Conditions
12:54 AM 57.0 °F - 39.0 °F 51% 30.24 in 10.0 mi East 6.9 mph - N/A   Clear
1:54 AM 55.9 °F - 39.9 °F 55% 30.24 in 10.0 mi East 10.4 mph - N/A   Clear
2:54 AM 54.0 °F - 39.9 °F 59% 30.24 in 10.0 mi ESE 8.1 mph - N/A   Clear
3:54 AM 52.0 °F - 39.0 °F 61% 30.24 in 10.0 mi SSE 4.6 mph - N/A   Clear
4:54 AM 46.9 °F - 37.9 °F 71% 30.25 in 10.0 mi SSE 4.6 mph - N/A   Clear
5:54 AM 45.0 °F 42.6 °F 39.0 °F 80% 30.27 in 10.0 mi South 4.6 mph - N/A   Clear
6:54 AM 51.1 °F - 42.1 °F 71% 30.28 in 10.0 mi SSE 8.1 mph - N/A   Partly Cloudy
7:54 AM 57.0 °F - 44.1 °F 62% 30.27 in 10.0 mi SE 16.1 mph - N/A   Scattered Clouds
8:54 AM 59.0 °F - 44.1 °F 58% 30.28 in 10.0 mi SE 17.3 mph - N/A   Scattered Clouds
9:54 AM 64.9 °F - 46.9 °F 52% 30.26 in 10.0 mi SE 16.1 mph - N/A   Mostly Cloudy
10:54 AM 70.0 °F - 45.0 °F 41% 30.23 in 10.0 mi SSE 23.0 mph - N/A   Scattered Clouds
11:54 AM 73.0 °F - 45.0 °F 37% 30.21 in 10.0 mi South 24.2 mph 32.2 mph N/A   Partly Cloudy
12:54 PM 73.9 °F - 46.9 °F 38% 30.20 in 10.0 mi SSE 21.9 mph 27.6 mph N/A   Overcast
1:54 PM 73.9 °F - 46.9 °F 38% 30.19 in 10.0 mi South 18.4 mph 29.9 mph N/A   Overcast
2:54 PM 73.9 °F - 46.0 °F 37% 30.16 in 10.0 mi South 20.7 mph 28.8 mph N/A   Overcast
3:54 PM 73.0 °F - 45.0 °F 37% 30.11 in 10.0 mi SSE 20.7 mph - N/A   Mostly Cloudy
4:54 PM 75.0 °F - 45.0 °F 34% 30.07 in 10.0 mi SSE 23.0 mph 31.1 mph N/A   Clear
5:54 PM 75.9 °F - 46.9 °F 36% 30.06 in 10.0 mi SSE 27.6 mph 33.4 mph N/A   Clear
6:54 PM 75.9 °F - 46.0 °F 35% 30.02 in 10.0 mi SSE 26.5 mph 35.7 mph N/A   Clear
7:54 PM 73.0 °F - 46.0 °F 38% 30.03 in 10.0 mi SSE 21.9 mph - N/A   Clear
8:54 PM 71.1 °F - 46.0 °F 41% 30.06 in 10.0 mi SE 10.4 mph - N/A   Overcast
9:54 PM 69.1 °F - 46.9 °F 45% 30.10 in 10.0 mi ESE 11.5 mph - N/A   Overcast
10:54 PM 68.0 °F - 46.9 °F 47% 30.11 in 10.0 mi ESE 16.1 mph - N/A   Overcast
11:54 PM 66.0 °F - 46.0 °F 48% 30.09 in 10.0 mi SE 19.6 mph - N/A   Overcast